Time,TemperatureF,DewpointF,PressureIn,WindDirection,WindDirectionDegrees,WindSpeedMPH,WindSpeedGustMPH,Humidity,HourlyPrecipIn,Conditions,Clouds,dailyrainin,SoftwareType,DateUTC
2013-02-03 00:03:00,29.0,23.0,-100.00,SW,220,1.0,3.0,78,0.00,,,-99.99,,2013-02-03 05:03:00,
2013-02-03 00:12:00,29.0,23.0,-100.00,SSW,205,1.0,3.0,78,0.00,,,-99.99,,2013-02-03 05:12:00,
2013-02-03 00:22:00,29.0,23.0,-100.00,SSW,205,1.0,3.0,78,0.00,,,-99.99,,2013-02-03 05:22:00,
2013-02-03 00:32:00,29.0,23.0,-100.00,SSW,205,1.0,3.0,77,0.00,,,-99.99,,2013-02-03 05:32:00,
2013-02-03 00:42:00,29.0,23.0,-100.00,West,260,1.0,4.0,77,0.00,,,-99.99,,2013-02-03 05:42:00,
2013-02-03 00:52:00,29.0,23.0,-100.00,SSW,210,1.0,6.0,76,0.00,,,-99.99,,2013-02-03 05:52:00,
2013-02-03 01:02:00,29.0,23.0,-100.00,WSW,245,1.0,5.0,76,0.00,,,-99.99,,2013-02-03 06:02:00,
2013-02-03 01:11:00,29.0,22.0,-100.00,SW,235,1.0,4.0,75,0.00,,,-99.99,,2013-02-03 06:11:00,
2013-02-03 01:21:00,29.0,22.0,-100.00,SSW,195,1.0,2.0,76,0.00,,,-99.99,,2013-02-03 06:21:00,
2013-02-03 01:32:00,29.0,22.0,-100.00,SSW,195,1.0,2.0,76,0.00,,,-99.99,,2013-02-03 06:32:00,
2013-02-03 01:42:00,29.0,22.0,-100.00,SSW,195,1.0,2.0,76,0.00,,,-99.99,,2013-02-03 06:42:00,
2013-02-03 01:52:00,28.0,22.0,-100.00,West,265,4.0,12.0,76,0.00,,,-99.99,,2013-02-03 06:52:00,
2013-02-03 02:02:00,27.0,21.0,-100.00,West,265,4.0,10.0,76,0.00,,,-99.99,,2013-02-03 07:02:00,
2013-02-03 02:11:00,27.0,20.0,-100.00,West,265,3.0,9.0,76,0.00,,,-99.99,,2013-02-03 07:11:00,
2013-02-03 02:21:00,27.0,20.0,-100.00,West,265,3.0,9.0,76,0.00,,,-99.99,,2013-02-03 07:21:00,
2013-02-03 02:32:00,26.0,19.0,-100.00,WNW,290,4.0,12.0,74,0.00,,,-99.99,,2013-02-03 07:32:00,
2013-02-03 02:42:00,25.0,18.0,-100.00,West,265,6.0,10.0,74,0.00,,,-99.99,,2013-02-03 07:42:00,
2013-02-03 02:52:00,25.0,18.0,-100.00,WNW,290,2.0,9.0,74,0.00,,,-99.99,,2013-02-03 07:52:00,
2013-02-03 03:02:00,25.0,18.0,-100.00,West,265,4.0,11.0,74,0.00,,,-99.99,,2013-02-03 08:02:00,
2013-02-03 03:11:00,24.0,17.0,-100.00,West,280,2.0,8.0,74,0.00,,,-99.99,,2013-02-03 08:11:00,
2013-02-03 03:22:00,24.0,17.0,-100.00,NNW,330,1.0,7.0,74,0.00,,,-99.99,,2013-02-03 08:22:00,
2013-02-03 03:32:00,23.0,17.0,-100.00,WNW,290,2.0,8.0,75,0.00,,,-99.99,,2013-02-03 08:32:00,
2013-02-03 03:41:00,23.0,16.0,-100.00,WNW,300,3.0,8.0,74,0.00,,,-99.99,,2013-02-03 08:41:00,
2013-02-03 03:52:00,23.0,16.0,-100.00,WNW,285,2.0,9.0,74,0.00,,,-99.99,,2013-02-03 08:52:00,
2013-02-03 04:03:00,23.0,16.0,-100.00,West,275,1.0,4.0,74,0.00,,,-99.99,,2013-02-03 09:03:00,
2013-02-03 04:11:00,23.0,16.0,-100.00,WSW,250,1.0,2.0,74,0.00,,,-99.99,,2013-02-03 09:11:00,
2013-02-03 04:21:00,23.0,16.0,-100.00,SW,230,1.0,3.0,74,0.00,,,-99.99,,2013-02-03 09:21:00,
2013-02-03 04:32:00,23.0,16.0,-100.00,SW,230,1.0,3.0,74,0.00,,,-99.99,,2013-02-03 09:32:00,
2013-02-03 04:42:00,23.0,16.0,-100.00,West,260,1.0,2.0,74,0.00,,,-99.99,,2013-02-03 09:42:00,
2013-02-03 04:51:00,22.0,15.0,-100.00,WNW,290,1.0,4.0,74,0.00,,,-99.99,,2013-02-03 09:51:00,
2013-02-03 05:01:00,22.0,15.0,-100.00,West,275,1.0,6.0,74,0.00,,,-99.99,,2013-02-03 10:01:00,
2013-02-03 05:11:00,22.0,15.0,-100.00,West,270,1.0,2.0,74,0.00,,,-99.99,,2013-02-03 10:11:00,
2013-02-03 05:21:00,21.0,15.0,-100.00,SW,225,1.0,2.0,75,0.00,,,-99.99,,2013-02-03 10:21:00,
2013-02-03 05:32:00,21.0,15.0,-100.00,West,260,1.0,4.0,75,0.00,,,-99.99,,2013-02-03 10:32:00,
2013-02-03 05:42:00,21.0,15.0,-100.00,SW,215,2.0,4.0,75,0.00,,,-99.99,,2013-02-03 10:42:00,
2013-02-03 05:52:00,21.0,14.0,-100.00,WSW,250,2.0,4.0,74,0.00,,,-99.99,,2013-02-03 10:52:00,
2013-02-03 06:02:00,21.0,14.0,-100.00,SW,235,0.0,5.0,74,0.00,,,-99.99,,2013-02-03 11:02:00,
2013-02-03 06:11:00,20.0,13.0,-100.00,West,265,1.0,5.0,73,0.00,,,-99.99,,2013-02-03 11:11:00,
2013-02-03 06:22:00,20.0,13.0,-100.00,WSW,245,4.0,6.0,72,0.00,,,-99.99,,2013-02-03 11:22:00,
2013-02-03 06:32:00,21.0,13.0,-100.00,West,270,1.0,4.0,72,0.00,,,-99.99,,2013-02-03 11:32:00,
2013-02-03 06:42:00,21.0,13.0,-100.00,WNW,285,1.0,2.0,72,0.00,,,-99.99,,2013-02-03 11:42:00,
2013-02-03 06:52:00,20.0,12.0,-100.00,West,280,2.0,6.0,71,0.00,,,-99.99,,2013-02-03 11:52:00,
2013-02-03 07:02:00,20.0,12.0,-100.00,West,260,2.0,8.0,71,0.00,,,-99.99,,2013-02-03 12:02:00,
2013-02-03 07:11:00,20.0,12.0,-100.00,West,260,2.0,10.0,71,0.00,,,-99.99,,2013-02-03 12:11:00,
2013-02-03 07:22:00,20.0,12.0,-100.00,WSW,255,1.0,8.0,71,0.00,,,-99.99,,2013-02-03 12:22:00,
2013-02-03 07:32:00,20.0,12.0,-100.00,East,80,1.0,7.0,71,0.00,,,-99.99,,2013-02-03 12:32:00,
2013-02-03 07:42:00,19.0,12.0,-100.00,NW,310,3.0,8.0,71,0.00,,,-99.99,,2013-02-03 12:42:00,
2013-02-03 07:53:00,19.0,11.0,-100.00,WSW,255,4.0,9.0,72,0.55,,,-99.99,,2013-02-03 12:53:00,
2013-02-03 08:03:00,19.0,12.0,-100.00,West,260,4.0,9.0,73,0.55,,,-99.99,,2013-02-03 13:03:00,
2013-02-03 08:11:00,19.0,12.0,-100.00,WSW,255,4.0,8.0,73,0.00,,,-99.99,,2013-02-03 13:11:00,
2013-02-03 08:21:00,19.0,12.0,-100.00,SW,225,5.0,9.0,73,0.00,,,-99.99,,2013-02-03 13:21:00,
2013-02-03 08:32:00,19.0,12.0,-100.00,WSW,255,3.0,8.0,73,0.00,,,-99.99,,2013-02-03 13:32:00,
2013-02-03 08:42:00,19.0,12.0,-100.00,WSW,245,3.0,8.0,73,0.00,,,-99.99,,2013-02-03 13:42:00,
2013-02-03 08:52:00,19.0,12.0,-100.00,West,280,2.0,6.0,73,0.00,,,-99.99,,2013-02-03 13:52:00,
2013-02-03 09:02:00,19.0,12.0,-100.00,SSW,210,4.0,7.0,73,0.00,,,-99.99,,2013-02-03 14:02:00,
2013-02-03 09:11:00,19.0,13.0,-100.00,WSW,255,1.0,7.0,74,1.10,,,-99.99,,2013-02-03 14:11:00,
2013-02-03 09:21:00,19.0,13.0,-100.00,WNW,290,1.0,9.0,74,0.00,,,-99.99,,2013-02-03 14:21:00,
2013-02-03 09:32:00,20.0,13.0,-100.00,WSW,240,2.0,4.0,74,0.00,,,-99.99,,2013-02-03 14:32:00,
2013-02-03 09:42:00,19.0,13.0,-100.00,SW,225,4.0,7.0,73,0.00,,,-99.99,,2013-02-03 14:42:00,
2013-02-03 09:52:00,19.0,13.0,-100.00,SW,225,4.0,7.0,73,0.00,,,-99.99,,2013-02-03 14:52:00,
2013-02-03 10:03:00,20.0,13.0,-100.00,SW,235,2.0,5.0,73,0.00,,,-99.99,,2013-02-03 15:03:00,
2013-02-03 10:11:00,20.0,12.0,-100.00,WSW,245,6.0,9.0,71,0.00,,,-99.99,,2013-02-03 15:11:00,
2013-02-03 10:22:00,20.0,13.0,-100.00,NW,310,2.0,12.0,72,0.00,,,-99.99,,2013-02-03 15:22:00,
2013-02-03 10:33:00,21.0,13.0,-100.00,West,275,2.0,6.0,70,0.00,,,-99.99,,2013-02-03 15:33:00,
2013-02-03 10:42:00,21.0,13.0,-100.00,WSW,255,2.0,7.0,69,0.00,,,-99.99,,2013-02-03 15:42:00,
2013-02-03 10:51:00,21.0,13.0,-100.00,WSW,255,2.0,7.0,69,0.00,,,-99.99,,2013-02-03 15:51:00,
2013-02-03 11:03:00,22.0,13.0,-100.00,West,260,3.0,11.0,67,0.00,,,-99.99,,2013-02-03 16:03:00,
2013-02-03 11:11:00,22.0,12.0,-100.00,SW,220,3.0,7.0,66,0.00,,,-99.99,,2013-02-03 16:11:00,
2013-02-03 11:22:00,23.0,13.0,-100.00,WSW,240,2.0,6.0,63,0.00,,,-99.99,,2013-02-03 16:22:00,
2013-02-03 11:33:00,22.0,13.0,-100.00,West,265,2.0,11.0,66,0.00,,,-99.99,,2013-02-03 16:33:00,
2013-02-03 11:42:00,22.0,12.0,-100.00,West,265,5.0,8.0,65,0.00,,,-99.99,,2013-02-03 16:42:00,
2013-02-03 11:52:00,23.0,13.0,-100.00,WSW,245,4.0,11.0,65,0.00,,,-99.99,,2013-02-03 16:52:00,
2013-02-03 12:02:00,22.0,12.0,-100.00,SW,225,7.0,12.0,65,0.00,,,-99.99,,2013-02-03 17:02:00,
2013-02-03 12:11:00,23.0,13.0,-100.00,WSW,250,4.0,7.0,64,0.00,,,-99.99,,2013-02-03 17:11:00,
2013-02-03 12:22:00,24.0,14.0,-100.00,West,265,3.0,9.0,63,0.00,,,-99.99,,2013-02-03 17:22:00,
2013-02-03 12:32:00,24.0,13.0,-100.00,WNW,290,4.0,9.0,63,0.00,,,-99.99,,2013-02-03 17:32:00,
2013-02-03 12:42:00,25.0,13.0,-100.00,NW,310,3.0,5.0,61,0.00,,,-99.99,,2013-02-03 17:42:00,
2013-02-03 12:52:00,23.0,13.0,-100.00,West,265,5.0,12.0,63,0.00,,,-99.99,,2013-02-03 17:52:00,
2013-02-03 13:03:00,25.0,14.0,-100.00,West,270,2.0,8.0,63,0.00,,,-99.99,,2013-02-03 18:03:00,
2013-02-03 13:12:00,25.0,13.0,-100.00,SW,215,4.0,7.0,61,0.00,,,-99.99,,2013-02-03 18:12:00,
2013-02-03 13:23:00,25.0,14.0,-100.00,WNW,290,4.0,9.0,62,0.00,,,-99.99,,2013-02-03 18:23:00,
2013-02-03 13:33:00,26.0,15.0,-100.00,West,275,1.0,6.0,62,0.00,,,-99.99,,2013-02-03 18:33:00,
2013-02-03 13:42:00,25.0,14.0,-100.00,WSW,250,4.0,9.0,64,0.00,,,-99.99,,2013-02-03 18:42:00,
2013-02-03 13:51:00,25.0,14.0,-100.00,WSW,250,4.0,9.0,64,0.00,,,-99.99,,2013-02-03 18:51:00,
2013-02-03 14:02:00,24.0,14.0,-100.00,SW,235,8.0,19.0,64,0.00,,,-99.99,,2013-02-03 19:02:00,
2013-02-03 14:11:00,25.0,15.0,-100.00,West,265,4.0,18.0,66,0.00,,,-99.99,,2013-02-03 19:11:00,
2013-02-03 14:22:00,25.0,15.0,-100.00,West,275,3.0,15.0,66,0.00,,,-99.99,,2013-02-03 19:22:00,
2013-02-03 14:32:00,26.0,16.0,-100.00,NW,315,3.0,6.0,66,0.00,,,-99.99,,2013-02-03 19:32:00,
2013-02-03 14:42:00,25.0,16.0,-100.00,West,265,4.0,11.0,68,0.00,,,-99.99,,2013-02-03 19:42:00,
2013-02-03 14:51:00,25.0,17.0,-100.00,WSW,255,4.0,12.0,69,0.00,,,-99.99,,2013-02-03 19:51:00,
2013-02-03 15:02:00,24.0,17.0,-100.00,WSW,250,6.0,12.0,71,0.00,,,-99.99,,2013-02-03 20:02:00,
2013-02-03 15:12:00,25.0,17.0,-100.00,SW,230,4.0,12.0,71,0.00,,,-99.99,,2013-02-03 20:12:00,
2013-02-03 15:21:00,24.0,17.0,-100.00,WSW,255,4.0,12.0,73,0.00,,,-99.99,,2013-02-03 20:21:00,
2013-02-03 15:33:00,25.0,17.0,-100.00,SW,225,4.0,9.0,73,0.55,,,-99.99,,2013-02-03 20:33:00,
2013-02-03 15:42:00,25.0,18.0,-100.00,West,260,2.0,9.0,74,0.55,,,-99.99,,2013-02-03 20:42:00,
2013-02-03 15:52:00,25.0,18.0,-100.00,WNW,295,1.0,9.0,74,0.55,,,-99.99,,2013-02-03 20:52:00,
2013-02-03 16:03:00,25.0,19.0,-100.00,SSW,205,2.0,6.0,74,0.00,,,-99.99,,2013-02-03 21:03:00,
2013-02-03 16:11:00,25.0,19.0,-100.00,SW,230,8.0,12.0,76,0.55,,,-99.99,,2013-02-03 21:11:00,
2013-02-03 16:21:00,25.0,19.0,-100.00,West,260,4.0,7.0,75,0.00,,,-99.99,,2013-02-03 21:21:00,
2013-02-03 16:33:00,25.0,19.0,-100.00,SW,230,4.0,6.0,76,0.00,,,-99.99,,2013-02-03 21:33:00,
2013-02-03 16:42:00,25.0,19.0,-100.00,SW,220,4.0,9.0,76,0.00,,,-99.99,,2013-02-03 21:42:00,
2013-02-03 16:51:00,25.0,19.0,-100.00,WNW,290,2.0,7.0,76,0.00,,,-99.99,,2013-02-03 21:51:00,
2013-02-03 17:02:00,25.0,19.0,-100.00,WSW,240,4.0,11.0,76,0.00,,,-99.99,,2013-02-03 22:02:00,
2013-02-03 17:11:00,25.0,19.0,-100.00,SW,225,4.0,9.0,76,0.00,,,-99.99,,2013-02-03 22:11:00,
2013-02-03 17:21:00,25.0,19.0,-100.00,SW,220,4.0,8.0,77,0.55,,,-99.99,,2013-02-03 22:21:00,
2013-02-03 17:32:00,25.0,19.0,-100.00,SW,215,1.0,6.0,77,0.00,,,-99.99,,2013-02-03 22:32:00,
2013-02-03 17:42:00,26.0,20.0,-100.00,SW,225,2.0,5.0,78,0.00,,,-99.99,,2013-02-03 22:42:00,
2013-02-03 17:51:00,26.0,20.0,-100.00,SW,215,4.0,8.0,78,0.00,,,-99.99,,2013-02-03 22:51:00,
2013-02-03 18:01:00,26.0,20.0,-100.00,WSW,240,4.0,6.0,78,0.00,,,-99.99,,2013-02-03 23:01:00,
2013-02-03 18:12:00,26.0,20.0,-100.00,SW,235,2.0,6.0,78,0.00,,,-99.99,,2013-02-03 23:12:00,
2013-02-03 18:22:00,26.0,20.0,-100.00,SW,215,2.0,6.0,79,0.00,,,-99.99,,2013-02-03 23:22:00,
2013-02-03 18:32:00,25.0,20.0,-100.00,SSW,210,2.0,4.0,79,0.00,,,-99.99,,2013-02-03 23:32:00,
2013-02-03 18:42:00,25.0,20.0,-100.00,SSW,210,2.0,4.0,79,0.55,,,-99.99,,2013-02-03 23:42:00,
2013-02-03 18:52:00,26.0,20.0,-100.00,SW,215,2.0,6.0,80,0.00,,,-99.99,,2013-02-03 23:52:00,
2013-02-03 19:02:00,26.0,20.0,-100.00,SW,220,2.0,6.0,80,0.55,,,-99.99,,2013-02-04 00:02:00,
2013-02-03 19:11:00,25.0,20.0,-100.00,SW,225,2.0,5.0,81,0.55,,,-99.99,,2013-02-04 00:11:00,
2013-02-03 19:22:00,26.0,20.0,-100.00,West,260,6.0,12.0,78,0.00,,,-99.99,,2013-02-04 00:22:00,
2013-02-03 19:32:00,26.0,19.0,-100.00,WSW,240,1.0,11.0,76,0.00,,,-99.99,,2013-02-04 00:32:00,
2013-02-03 19:42:00,26.0,19.0,-100.00,SW,225,6.0,9.0,76,0.00,,,-99.99,,2013-02-04 00:42:00,
2013-02-03 19:51:00,26.0,19.0,-100.00,WSW,245,5.0,11.0,74,0.00,,,-99.99,,2013-02-04 00:51:00,
2013-02-03 20:01:00,25.0,18.0,-100.00,West,280,4.0,8.0,73,0.00,,,-99.99,,2013-02-04 01:01:00,
2013-02-03 20:11:00,25.0,17.0,-100.00,SW,230,2.0,9.0,72,0.00,,,-99.99,,2013-02-04 01:11:00,
2013-02-03 20:32:00,24.0,16.0,-100.00,WSW,245,2.0,6.0,71,0.00,,,-99.99,,2013-02-04 01:32:00,
2013-02-03 20:42:00,24.0,16.0,-100.00,WSW,250,2.0,3.0,71,0.00,,,-99.99,,2013-02-04 01:42:00,
2013-02-03 20:52:00,24.0,16.0,-100.00,WSW,240,1.0,6.0,71,0.00,,,-99.99,,2013-02-04 01:52:00,
2013-02-03 21:02:00,23.0,16.0,-100.00,SW,235,2.0,4.0,71,0.00,,,-99.99,,2013-02-04 02:02:00,
2013-02-03 21:11:00,23.0,15.0,-100.00,SSW,210,1.0,3.0,72,0.00,,,-99.99,,2013-02-04 02:11:00,
2013-02-03 21:21:00,22.0,15.0,-100.00,SSW,205,1.0,2.0,73,0.00,,,-99.99,,2013-02-04 02:21:00,
2013-02-03 21:32:00,21.0,15.0,-100.00,NNE,20,1.0,2.0,75,0.00,,,-99.99,,2013-02-04 02:32:00,
2013-02-03 21:41:00,20.0,14.0,-100.00,West,265,1.0,3.0,76,0.00,,,-99.99,,2013-02-04 02:41:00,
2013-02-03 21:52:00,19.0,14.0,-100.00,West,260,0.0,3.0,77,0.00,,,-99.99,,2013-02-04 02:52:00,
2013-02-03 22:02:00,19.0,13.0,-100.00,WSW,250,1.0,4.0,78,0.00,,,-99.99,,2013-02-04 03:02:00,
2013-02-03 22:11:00,19.0,13.0,-100.00,SW,235,2.0,3.0,79,0.00,,,-99.99,,2013-02-04 03:11:00,
2013-02-03 22:21:00,18.0,13.0,-100.00,WSW,240,1.0,3.0,80,0.00,,,-99.99,,2013-02-04 03:21:00,
2013-02-03 22:32:00,17.0,13.0,-100.00,SSW,210,0.0,5.0,81,0.00,,,-99.99,,2013-02-04 03:32:00,
2013-02-03 22:42:00,17.0,12.0,-100.00,West,260,1.0,1.0,82,0.00,,,-99.99,,2013-02-04 03:42:00,
2013-02-03 22:51:00,17.0,13.0,-100.00,SSW,210,1.0,2.0,83,0.00,,,-99.99,,2013-02-04 03:51:00,
2013-02-03 23:01:00,17.0,13.0,-100.00,SSW,205,0.0,4.0,83,0.00,,,-99.99,,2013-02-04 04:01:00,
2013-02-03 23:11:00,17.0,13.0,-100.00,SSW,205,0.0,4.0,83,0.00,,,-99.99,,2013-02-04 04:11:00,
2013-02-03 23:21:00,17.0,13.0,-100.00,WNW,285,1.0,4.0,84,0.00,,,-99.99,,2013-02-04 04:21:00,
2013-02-03 23:32:00,16.0,13.0,-100.00,South,185,1.0,3.0,85,0.00,,,-99.99,,2013-02-04 04:32:00,
2013-02-03 23:42:00,17.0,13.0,-100.00,SW,230,0.0,1.0,85,0.00,,,-99.99,,2013-02-04 04:42:00,
2013-02-03 23:52:00,16.0,13.0,-100.00,SSW,210,1.0,2.0,85,0.00,,,-99.99,,2013-02-04 04:52:00,